RH
60 60 62 64 65 68 72 76 80 87 96 100 100 100 100 100 100 100 100 99 97 98 98 99 97 96 97 96 94 92 88 86 82 78 73 66 60 55 53 53 53 55
61 63 64 65 67 69 74 81 91 96 99 100 100 100 100 100 100 100 100 98 95 93 93 95 95 94 95 95 95 93 90 88 85 83 79 75 72 68 66 66 64 63
62 65 66 67 69 71 75 84 95 99 99 99 100 100 100 100 100 100 100 100 98 96 96 97 97 96 96 97 97 96 94 92 90 90 87 82 80 78 77 78 75 72
63 65 67 69 70 73 76 83 91 97 99 99 99 100 100 100 100 100 100 100 100 100 100 100 99 99 99 99 100 99 98 98 97 97 95 90 88 86 85 85 84 81
67 68 69 70 72 74 77 81 86 92 96 99 99 99 99 100 100 100 100 100 100 100 100 100 100 100 100 100 100 99 99 100 99 100 99 97 96 95 94 93 91 89
67 69 71 73 75 76 78 81 83 87 91 95 97 98 99 100 100 100 100 100 100 100 100 100 100 100 100 100 100 99 99 100 100 100 100 99 100 100 100 100 98 96
49 55 60 65 70 74 77 80 82 85 88 91 93 95 97 98 98 99 99 99 99 99 100 100 100 100 100 100 100 100 100 100 100 100 100 99 100 99 99 99 99 97
32 35 39 43 48 53 59 64 69 73 76 80 83 86 88 90 91 92 92 92 92 93 94 95 95 96 97 97 97 97 98 98 99 98 97 96 96 94 93 93 91 88
26 27 29 30 32 35 39 43 47 51 55 59 63 65 68 71 74 76 77 78 79 80 80 82 83 84 85 86 86 87 89 90 91 90 89 87 85 83 82 81 79 76
27 27 27 28 29 31 33 35 39 42 45 47 49 51 53 56 58 61 64 66 68 70 72 74 76 78 79 81 81 82 83 84 85 85 84 83 81 80 79 78 76 75
34 31 31 30 30 30 30 32 35 38 40 42 43 44 46 48 50 52 54 56 58 60 62 63 64 67 69 71 72 72 73 74 75 76 76 76 76 76 76 76 75 73
45 42 39 37 35 34 33 33 34 35 36 37 37 37 38 40 40 41 42 43 44 45 46 46 46 48 49 51 52 53 53 54 55 56 56 56 56 57 57 57 56 54
55 52 49 47 44 42 40 40 39 39 39 39 39 38 39 39 40 40 41 41 42 42 43 43 43 44 45 46 47 47 47 48 47 47 47 47 47 47 47 46 46 45
64 61 58 56 54 51 50 49 48 48 48 47 47 47 47 47 48 49 49 49 49 49 49 49 49 49 49 50 50 50 50 49 49 48 48 47 47 46 46 46 46 46
73 70 66 64 62 60 58 57 56 56 56 55 55 55 55 55 55 55 56 56 56 55 54 54 53 53 53 52 52 52 51 51 51 50 50 49 49 48 48 48 48 48
78 76 74 71 69 67 66 64 63 63 62 62 62 61 60 60 59 59 59 60 60 60 59 59 58 57 57 56 56 55 55 54 54 54 53 52 52 51 51 51 51 51
81 80 79 77 76 75 73 72 71 70 69 68 68 67 66 66 65 64 64 64 64 64 65 65 65 64 63 63 62 61 60 59 59 58 57 56 56 55 55 55 55 55
84 83 83 82 82 82 81 79 79 78 76 75 75 74 74 73 73 72 72 71 71 70 71 71 71 71 71 70 69 69 67 65 64 63 62 61 61 60 59 59 59 59
91 90 89 88 87 86 86 86 85 84 84 83 83 82 82 82 81 81 81 80 79 78 77 77 77 77 77 77 76 75 73 71 69 67 65 65 65 65 64 63 62 62
98 98 97 96 95 94 93 93 93 92 92 91 90 90 90 90 90 89 89 89 88 86 85 84 84 83 82 81 79 78 77 76 74 71 69 68 68 68 67 65 64 64
95 95 95 95 95 95 94 94 94 94 94 93 93 93 93 93 93 92 92 92 91 90 89 88 88 87 86 84 82 81 80 79 78 76 74 72 71 70 69 68 66 65
84 84 84 84 84 84 84 84 84 84 84 84 84 84 84 84 84 84 83 83 83 82 81 81 81 81 81 79 79 78 77 76 76 74 73 72 70 69 68 67 66 65
74 73 73 73 73 73 72 72 72 72 71 71 71 71 71 70 70 70 69 69 69 68 68 68 67 67 68 67 67 67 67 67 66 66 65 65 65 64 64 64 64 64
66 65 64 64 63 62 62 62 61 61 60 60 59 59 59 59 58 58 58 57 57 57 57 57 56 56 56 56 56 56 56 56 56 57 57 57 57 57 57 58 58 58
57 56 56 55 55 54 54 53 52 52 51 51 51 50 50 50 49 49 49 49 49 48 48 48 48 48 48 48 48 49 49 49 49 49 49 49 49 49 49 49 50 50
51 50 49 48 47 47 46 46 45 45 44 44 44 43 43 43 43 42 42 42 42 42 42 42 41 42 42 41 42 42 42 43 43 43 43 43 43 43 43 43 43 44
Wind_Speed
36 36 36 35 35 35 35 34 34 35 36 38 38 38 38 39 39 40 40 40 39 41 42 44 45 43 43 43 44 46 46 46 46 45 45 45 45 44 44 44 44 44
35 35 35 35 35 34 34 33 33 33 35 37 39 39 38 37 37 37 38 40 41 43 44 46 46 45 43 44 45 46 48 48 49 49 49 49 49 48 48 47 47 46
33 34 34 34 34 34 34 34 34 34 35 37 39 40 40 40 39 38 37 38 40 41 43 44 44 44 44 45 46 47 49 50 50 51 51 52 52 52 51 50 50 50
31 32 32 32 33 33 34 34 35 35 36 37 38 40 41 43 43 43 42 41 42 42 43 43 44 44 45 46 47 49 50 50 51 51 52 52 53 53 53 52 52 52
28 29 30 30 31 32 33 34 35 36 37 37 38 39 41 43 44 45 46 46 45 45 45 45 45 45 45 46 47 48 49 49 50 51 52 52 52 53 53 53 53 53
25 26 27 28 29 30 32 33 34 36 37 38 39 40 41 42 43 44 45 45 45 45 44 44 44 44 44 45 46 47 47 48 49 50 50 51 51 52 52 53 53 53
22 23 24 25 27 28 30 32 33 35 36 37 38 39 40 41 43 43 44 44 45 45 45 45 45 45 45 46 46 47 47 48 48 49 49 49 50 50 51 52 52 53
21 22 23 24 25 26 27 29 31 32 34 35 36 37 38 39 40 41 41 42 43 44 44 45 45 45 46 46 47 47 48 48 48 49 49 49 49 50 50 51 51 52
23 24 24 25 25 26 27 28 29 30 31 32 34 34 35 36 37 37 38 38 38 39 40 40 41 42 43 44 45 45 46 46 47 47 48 48 48 48 49 49 50 50
26 26 27 27 27 28 28 29 30 30 31 32 32 33 33 34 34 35 35 35 35 35 36 36 37 38 38 39 40 41 42 43 43 44 45 46 46 46 47 48 48 48
28 28 29 29 29 30 30 30 31 31 32 32 33 33 33 34 34 34 34 34 34 34 34 35 35 35 35 36 36 37 38 38 39 39 40 41 41 42 42 43 44 44
29 29 30 30 31 31 31 32 32 32 32 33 33 34 34 34 34 34 34 34 34 34 34 34 34 34 34 34 34 35 35 35 35 36 36 37 37 37 38 38 39 39
30 30 31 31 32 32 33 33 33 33 33 33 33 34 34 34 34 34 34 34 34 34 34 34 35 35 35 35 35 35 35 35 35 35 36 36 36 37 37 38 38 38
31 31 31 32 33 33 33 34 34 34 34 34 35 35 35 35 35 35 35 35 35 35 36 36 36 36 36 37 37 37 37 38 38 38 38 39 39 39 39 40 40 40
33 33 33 33 34 34 35 35 35 35 35 36 36 36 36 36 36 36 36 36 37 37 37 37 38 38 38 39 39 39 40 40 40 41 41 41 41 41 42 42 42 42
34 34 34 35 35 35 36 36 36 37 37 37 37 37 37 38 38 38 38 38 38 38 39 39 40 40 40 41 41 42 42 42 43 43 43 44 44 44 44 44 45 45
34 34 35 35 35 35 36 36 37 37 37 38 38 38 39 39 39 40 40 40 40 40 40 41 41 42 42 43 43 44 44 45 45 45 46 46 47 47 47 47 48 48
35 35 36 36 36 36 37 37 38 38 39 39 39 40 40 41 41 42 42 43 43 43 43 43 44 44 45 45 46 46 47 48 48 49 49 49 50 50 51 51 51 51
38 38 38 39 39 40 40 40 41 41 42 42 42 43 43 43 44 44 45 46 46 47 47 47 47 48 48 48 49 49 50 51 52 53 53 53 53 53 54 54 55 55
41 42 42 42 43 43 43 44 44 45 45 46 46 46 47 47 47 48 48 49 49 50 50 51 51 51 51 52 52 53 53 54 55 56 56 56 56 56 57 57 58 58
44 45 45 46 46 46 47 47 48 48 49 49 49 50 50 50 51 51 51 52 52 53 53 53 53 53 54 55 56 56 56 57 57 58 59 59 58 58 59 59 60 61
46 47 47 48 49 49 50 50 51 51 51 52 52 52 53 53 53 54 54 54 55 55 56 56 55 55 56 57 57 58 59 59 59 60 61 61 61 60 60 61 61 62
47 48 49 49 50 50 51 51 52 53 53 54 54 54 54 54 54 55 55 55 56 56 57 57 57 57 57 57 58 58 59 59 60 61 62 62 62 61 61 61 61 61
49 50 51 51 52 52 53 53 54 54 55 55 56 56 56 56 56 56 56 56 56 57 57 57 58 58 57 57 57 57 58 58 59 60 61 61 62 61 61 61 61 60
52 53 54 54 55 55 55 56 56 57 57 58 58 58 58 58 58 58 58 58 59 59 59 60 60 59 59 58 58 58 58 59 60 60 61 62 62 62 62 62 61 60
56 56 57 58 58 59 59 59 60 60 60 60 60 60 60 61 61 61 61 61 61 61 61 61 62 62 61 61 61 61 60 61 61 62 62 62 63 63 63 62 62 62
Wind_Direction
252 252 252 251 250 249 247 245 243 239 236 235 236 239 243 245 246 246 243 239 238 238 237 236 235 234 235 236 237 237 236 236 235 235 235 237 238 240 242 243 244 245
252 251 250 249 248 246 244 242 240 238 237 236 237 239 242 243 245 246 244 241 240 240 239 238 238 237 237 238 239 240 240 239 238 237 237 237 237 238 240 242 243 244
253 252 251 249 248 246 243 240 237 236 236 236 237 239 241 242 244 244 242 241 240 241 241 241 242 241 241 241 241 242 243 243 242 241 240 240 240 241 241 241 242 244
254 253 252 251 249 247 245 242 240 238 237 237 238 240 241 243 245 246 245 244 243 244 244 245 245 244 243 243 244 244 245 245 244 243 243 244 244 245 245 244 245 246
256 255 254 254 252 251 249 246 245 243 242 241 241 242 243 244 245 246 247 248 248 248 247 247 247 246 246 245 246 247 247 247 247 246 246 247 248 248 249 249 250 250
258 257 256 256 255 254 253 251 250 248 247 246 245 245 246 246 247 248 248 249 249 250 250 250 250 249 249 249 249 249 250 250 250 249 250 251 251 251 252 253 253 254
257 257 256 256 256 256 256 256 256 255 253 252 252 251 251 251 251 252 252 253 254 254 255 255 255 255 255 254 255 255 255 254 254 254 255 255 255 255 255 256 256 257
258 257 256 257 257 257 257 257 258 258 258 258 257 257 257 257 257 257 257 258 258 258 259 259 260 260 260 260 260 261 260 260 259 259 259 259 258 258 258 258 258 259
262 260 259 258 257 257 257 257 257 258 258 259 259 259 259 259 259 260 260 260 260 260 260 260 260 260 261 261 261 261 261 261 261 261 261 260 260 260 260 260 260 260
268 267 265 262 261 259 258 258 258 258 258 258 259 259 260 260 260 260 260 260 260 259 259 259 259 259 259 259 259 260 260 260 260 260 260 260 261 261 261 261 261 261
273 272 270 269 267 265 263 262 261 260 260 259 259 259 259 259 260 260 259 259 259 258 258 258 258 258 257 257 257 257 257 257 257 257 257 257 258 258 259 259 260 261
274 274 273 272 271 269 267 266 265 264 263 262 261 260 260 259 259 259 258 258 257 257 257 256 256 256 256 255 255 255 255 254 254 254 254 255 255 255 255 256 256 257
275 274 273 273 272 271 270 268 267 266 265 264 263 262 261 260 259 258 258 257 257 256 256 255 255 254 254 254 254 255 255 254 254 254 254 255 255 256 256 257 257 257
275 274 273 272 271 271 270 268 267 266 265 264 263 262 261 260 260 259 258 258 257 256 256 255 255 254 254 255 255 255 256 256 256 257 257 257 257 258 258 259 259 260
275 274 272 271 270 269 268 268 267 266 265 264 263 262 262 261 260 260 260 260 259 259 258 258 257 257 257 257 257 258 258 259 259 259 260 260 260 260 261 262 262 263
273 273 272 271 270 269 268 267 267 266 266 266 266 265 264 264 263 263 262 262 262 262 262 262 261 261 261 261 261 261 261 261 261 262 262 263 263 263 264 265 265 266
271 271 270 270 269 269 268 267 267 267 266 266 266 266 266 266 266 265 265 265 264 264 264 264 264 264 264 264 264 264 264 263 263 264 264 265 265 265 266 266 267 268
271 269 269 268 268 268 267 267 267 267 266 266 266 266 266 267 267 267 267 267 266 266 266 266 266 266 266 266 266 266 266 266 266 266 266 266 266 267 267 268 268 268
272 271 270 269 268 267 267 267 267 267 267 266 266 266 267 267 267 268 268 268 269 269 268 268 268 268 269 268 268 268 268 268 268 267 267 268 268 269 269 269 269 269
275 274 273 272 270 269 269 268 268 268 268 268 268 268 268 268 268 268 269 269 269 269 269 270 270 270 270 270 270 270 270 270 269 269 269 269 270 270 270 270 271 271
278 277 277 276 275 274 274 273 272 271 270 270 270 269 269 269 269 270 270 270 270 270 270 270 270 270 270 270 270 270 270 270 270 270 271 270 270 270 270 271 271 271
279 278 278 277 277 276 276 276 276 275 275 274 274 273 272 272 271 271 271 271 271 271 271 271 271 271 271 271 271 271 271 270 270 270 270 270 270 270 270 270 270 270
281 280 280 279 278 278 277 276 276 276 276 275 275 275 275 275 274 274 274 273 273 273 273 272 272 272 272 272 272 272 272 272 271 271 271 270 270 269 269 268 268 268
284 283 282 281 280 280 279 278 278 277 277 276 276 275 275 275 275 275 275 275 275 275 275 274 274 274 274 273 273 273 272 272 271 271 271 270 270 269 269 268 268 267
285 284 283 283 282 281 280 280 279 279 279 278 278 277 276 276 276 275 275 275 275 275 275 275 274 274 274 273 273 272 272 272 271 271 271 271 271 271 270 270 269 269
286 285 284 284 283 282 282 281 280 280 280 280 279 279 278 278 277 277 276 275 275 274 274 274 274 274 274 273 273 272 272 272 272 271 271 271 271 271 271 271 271 270